When you browse on this site, cookies collect data to enhance your experience and personalize the content and advertising you see.
Visit our Privacy Policy to learn more. By continuing to use the site, you agree to this use of cookies and data.
  • En España
  • Lista de países
  • Para 7 días
  • Temperatura del agua
  • Mapa Satelital
  • El tiempo en el mapa
  • Informadores
  • user-avatar
    Iniciar sesión

    Tiempo cada hora Pokigrov

    Hoy, 19 Junio, Miércoles

    Tiempo Temperatura Precipitaciones Viento Presión Humedad
    00:00 +24°C° 0 mm 1 mps 754 mmHg 94%
    01:00 +24°C° 0 mm 1 mps 753 mmHg 95%
    02:00 +24°C° 0 mm 1 mps 753 mmHg 96%
    03:00 +24°C° 0 mm 1 mps 753 mmHg 96%
    04:00 +24°C° 0 mm 1 mps 753 mmHg 96%
    05:00 +24°C° 0 mm 1 mps 754 mmHg 96%
    06:00 +25°C° 0 mm 1 mps 754 mmHg 90%
    07:00 +26°C° 0 mm 1 mps 754 mmHg 84%
    08:00 +27°C° 0 mm 2 mps 755 mmHg 78%
    09:00 +29°C° 0 mm 2 mps 755 mmHg 68%
    10:00 +31°C° 0 mm 2 mps 754 mmHg 58%
    11:00 +32°C° 0 mm 1 mps 754 mmHg 47%
    12:00 +34°C° 0.1 mm 2 mps 754 mmHg 50%
    13:00 +34°C° 0.1 mm 2 mps 753 mmHg 52%
    14:00 +34°C° 0.1 mm 2 mps 753 mmHg 55%
    15:00 +31°C° 0.9 mm 2 mps 752 mmHg 68%
    16:00 +28°C° 0.9 mm 2 mps 752 mmHg 81%
    17:00 +26°C° 0.9 mm 2 mps 752 mmHg 95%
    18:00 +26°C° 1 mm 2 mps 753 mmHg 95%
    19:00 +26°C° 1 mm 1 mps 753 mmHg 95%
    20:00 +26°C° 1 mm 1 mps 754 mmHg 95%
    21:00 +26°C° 0.9 mm 1 mps 754 mmHg 95%
    22:00 +26°C° 0.9 mm 1 mps 754 mmHg 95%
    23:00 +25°C° 0.9 mm 1 mps 754 mmHg 95%

    Mañana, 20 Junio, Jueves

    Tiempo Temperatura Precipitaciones Viento Presión Humedad
    00:00 +25°C° 0.9 mm 1 mps 754 mmHg 96%
    01:00 +25°C° 0.9 mm 1 mps 754 mmHg 96%
    02:00 +25°C° 0.9 mm 1 mps 753 mmHg 97%
    03:00 +25°C° 0.9 mm 1 mps 753 mmHg 97%
    04:00 +25°C° 0.9 mm 1 mps 753 mmHg 97%
    05:00 +23°C° 0.9 mm 0 mps 753 mmHg 97%
    06:00 +25°C° 0.6 mm 1 mps 754 mmHg 97%
    07:00 +25°C° 0.6 mm 1 mps 754 mmHg 97%
    08:00 +25°C° 0.6 mm 1 mps 755 mmHg 97%
    09:00 +26°C° 0.2 mm 1 mps 755 mmHg 93%
    10:00 +27°C° 0.2 mm 1 mps 755 mmHg 89%
    11:00 +28°C° 0.2 mm 1 mps 755 mmHg 85%
    12:00 +29°C° 0.1 mm 1 mps 754 mmHg 79%
    13:00 +30°C° 0.1 mm 1 mps 754 mmHg 73%
    14:00 +31°C° 0.1 mm 1 mps 753 mmHg 67%
    15:00 +30°C° 1.4 mm 1 mps 753 mmHg 77%
    16:00 +28°C° 1.4 mm 2 mps 753 mmHg 86%
    17:00 +27°C° 1.4 mm 2 mps 753 mmHg 95%
    18:00 +26°C° 2.2 mm 1 mps 753 mmHg 96%
    19:00 +26°C° 2.2 mm 1 mps 754 mmHg 96%
    20:00 +26°C° 2.2 mm 1 mps 754 mmHg 97%
    21:00 +25°C° 1.8 mm 1 mps 755 mmHg 97%
    22:00 +25°C° 1.8 mm 1 mps 755 mmHg 97%
    23:00 +25°C° 1.8 mm 2 mps 755 mmHg 97%

    Pasado mañana, 21 Junio, Viernes

    Tiempo Temperatura Precipitaciones Viento Presión Humedad
    00:00 +25°C° 3.1 mm 1 mps 755 mmHg 97%
    01:00 +25°C° 3.1 mm 1 mps 754 mmHg 97%
    02:00 +24°C° 3.1 mm 1 mps 754 mmHg 98%
    03:00 +24°C° 0.7 mm 1 mps 754 mmHg 98%
    04:00 +24°C° 0.7 mm 1 mps 754 mmHg 98%
    05:00 +24°C° 0.7 mm 1 mps 754 mmHg 98%
    06:00 +24°C° 0.4 mm 1 mps 755 mmHg 97%
    07:00 +22°C° 0.4 mm 0 mps 755 mmHg 97%
    08:00 +23°C° 0.4 mm 0 mps 756 mmHg 96%
    09:00 +26°C° 0 mm 1 mps 755 mmHg 89%
    10:00 +27°C° 0 mm 1 mps 755 mmHg 81%
    11:00 +29°C° 0 mm 1 mps 755 mmHg 73%
    12:00 +30°C° 0 mm 1 mps 755 mmHg 70%
    13:00 +30°C° 0 mm 1 mps 754 mmHg 66%
    14:00 +31°C° 0 mm 1 mps 753 mmHg 63%
    15:00 +31°C° 0 mm 1 mps 753 mmHg 66%
    16:00 +30°C° 0 mm 1 mps 753 mmHg 69%
    17:00 +30°C° 0 mm 1 mps 753 mmHg 72%
    18:00 +28°C° 0 mm 1 mps 754 mmHg 76%
    19:00 +27°C° 0 mm 1 mps 754 mmHg 80%
    20:00 +26°C° 0 mm 1 mps 755 mmHg 84%
    21:00 +25°C° 0.4 mm 1 mps 755 mmHg 88%
    22:00 +25°C° 0.4 mm 1 mps 756 mmHg 91%
    23:00 +25°C° 0.4 mm 1 mps 756 mmHg 94%

    22 Junio, Sábado

    Tiempo Temperatura Precipitaciones Viento Presión Humedad
    00:00 +24°C° 0.1 mm 1 mps 755 mmHg 95%
    01:00 +24°C° 0.1 mm 1 mps 755 mmHg 96%
    02:00 +24°C° 0.1 mm 1 mps 754 mmHg 96%
    03:00 +22°C° 0 mm 0 mps 754 mmHg 96%
    04:00 +22°C° 0 mm 0 mps 755 mmHg 96%
    05:00 +22°C° 0 mm 0 mps 755 mmHg 97%
    06:00 +23°C° 0 mm 0 mps 755 mmHg 95%
    07:00 +23°C° 0 mm 0 mps 755 mmHg 93%
    08:00 +24°C° 0 mm 0 mps 755 mmHg 92%
    09:00 +28°C° 0 mm 1 mps 755 mmHg 81%
    10:00 +30°C° 0 mm 1 mps 755 mmHg 71%
    11:00 +32°C° 0 mm 2 mps 755 mmHg 60%
    12:00 +32°C° 0.1 mm 2 mps 754 mmHg 61%
    13:00 +32°C° 0.1 mm 2 mps 754 mmHg 62%
    14:00 +32°C° 0.1 mm 2 mps 753 mmHg 63%
    15:00 +30°C° 0.6 mm 2 mps 753 mmHg 72%
    16:00 +29°C° 0.6 mm 2 mps 752 mmHg 82%
    17:00 +27°C° 0.6 mm 2 mps 752 mmHg 92%
    18:00 +27°C° 0.4 mm 2 mps 753 mmHg 93%
    19:00 +26°C° 0.4 mm 2 mps 754 mmHg 94%
    20:00 +25°C° 0.4 mm 2 mps 754 mmHg 95%
    21:00 +25°C° 0.2 mm 2 mps 755 mmHg 95%
    22:00 +25°C° 0.2 mm 1 mps 755 mmHg 95%
    23:00 +25°C° 0.2 mm 1 mps 755 mmHg 95%

    23 Junio, Domingo

    Tiempo Temperatura Precipitaciones Viento Presión Humedad
    00:00 +25°C° 0 mm 1 mps 755 mmHg 95%
    01:00 +24°C° 0 mm 1 mps 754 mmHg 95%
    02:00 +24°C° 0 mm 1 mps 754 mmHg 96%
    03:00 +24°C° 0 mm 1 mps 754 mmHg 96%
    04:00 +24°C° 0 mm 1 mps 754 mmHg 96%
    05:00 +24°C° 0 mm 1 mps 754 mmHg 96%
    06:00 +25°C° 0 mm 1 mps 754 mmHg 93%
    07:00 +26°C° 0 mm 1 mps 755 mmHg 90%
    08:00 +27°C° 0 mm 1 mps 755 mmHg 87%
    09:00 +28°C° 0.1 mm 1 mps 755 mmHg 80%
    10:00 +30°C° 0.1 mm 2 mps 755 mmHg 73%
    11:00 +31°C° 0.1 mm 2 mps 754 mmHg 66%
    12:00 +31°C° 0.6 mm 2 mps 754 mmHg 70%
    13:00 +30°C° 0.6 mm 1 mps 753 mmHg 75%
    14:00 +30°C° 0.6 mm 1 mps 752 mmHg 80%
    15:00 +29°C° 0.7 mm 1 mps 752 mmHg 84%
    16:00 +29°C° 0.7 mm 1 mps 752 mmHg 88%
    17:00 +28°C° 0.7 mm 1 mps 751 mmHg 93%
    18:00 +27°C° 0.7 mm 1 mps 752 mmHg 93%
    19:00 +26°C° 0.7 mm 1 mps 753 mmHg 94%
    20:00 +25°C° 0.7 mm 2 mps 753 mmHg 95%
    21:00 +25°C° 0.3 mm 1 mps 754 mmHg 95%
    22:00 +25°C° 0.3 mm 1 mps 754 mmHg 95%
    23:00 +25°C° 0.3 mm 1 mps 754 mmHg 96%

    24 Junio, Lunes

    Tiempo Temperatura Precipitaciones Viento Presión Humedad
    00:00 +24°C° 0 mm 1 mps 753 mmHg 96%
    01:00 +24°C° 0 mm 1 mps 753 mmHg 96%
    02:00 +24°C° 0 mm 1 mps 752 mmHg 96%
    03:00 +24°C° 0 mm 1 mps 752 mmHg 96%
    04:00 +24°C° 0 mm 1 mps 752 mmHg 97%
    05:00 +23°C° 0 mm 1 mps 752 mmHg 97%
    06:00 +24°C° 0 mm 1 mps 753 mmHg 94%
    07:00 +26°C° 0 mm 1 mps 753 mmHg 91%
    08:00 +27°C° 0 mm 1 mps 753 mmHg 88%
    09:00 +28°C° 0 mm 1 mps 753 mmHg 79%
    10:00 +30°C° 0 mm 1 mps 753 mmHg 70%
    11:00 +31°C° 0 mm 2 mps 753 mmHg 61%
    12:00 +32°C° 0 mm 2 mps 752 mmHg 61%
    13:00 +32°C° 0 mm 2 mps 752 mmHg 60%
    14:00 +32°C° 0 mm 2 mps 751 mmHg 60%
    15:00 +31°C° 0.4 mm 2 mps 751 mmHg 69%
    16:00 +30°C° 0.4 mm 2 mps 750 mmHg 79%
    17:00 +28°C° 0.4 mm 2 mps 750 mmHg 88%
    18:00 +27°C° 0.7 mm 2 mps 751 mmHg 90%
    19:00 +27°C° 0.7 mm 2 mps 751 mmHg 93%
    20:00 +26°C° 0.7 mm 2 mps 752 mmHg 95%
    21:00 +25°C° 0.2 mm 1 mps 752 mmHg 95%
    22:00 +25°C° 0.2 mm 1 mps 752 mmHg 95%
    23:00 +25°C° 0.2 mm 1 mps 753 mmHg 95%
    Mostrar más